owner,sensor,date,latitude,longitude,relative_humidity,qcFlag 
DISL,ioos:station:DISL:PPTA:1,2019-05-07T17:06:00Z,30.2791,-87.5561,68.76,11111222 
DISL,ioos:station:DISL:PPTA:1,2019-05-07T18:05:00Z,30.2791,-87.5561,71.69,11111222 
DISL,ioos:station:DISL:PPTA:1,2019-05-07T19:05:00Z,30.2791,-87.5561,73.27,11111222 
DISL,ioos:station:DISL:PPTA:1,2019-05-07T20:05:00Z,30.2791,-87.5561,71.89,11111222 
DISL,ioos:station:DISL:PPTA:1,2019-05-07T21:05:00Z,30.2791,-87.5561,69.39,11111222 
DISL,ioos:station:DISL:PPTA:1,2019-05-07T22:05:00Z,30.2791,-87.5561,69.29,11111222 
DISL,ioos:station:DISL:PPTA:1,2019-05-07T23:05:00Z,30.2791,-87.5561,73.56,11111222 
DISL,ioos:station:DISL:PPTA:1,2019-05-07T23:56:00Z,30.2791,-87.5561,75.42,11111222 
DISL,ioos:station:DISL:PPTA:1,2019-05-08T01:05:00Z,30.2791,-87.5561,77.13,11111222 
DISL,ioos:station:DISL:PPTA:1,2019-05-08T02:05:00Z,30.2791,-87.5561,77.42,11111222 
DISL,ioos:station:DISL:PPTA:1,2019-05-08T03:05:00Z,30.2791,-87.5561,76.33,11111222 
DISL,ioos:station:DISL:PPTA:1,2019-05-08T04:05:00Z,30.2791,-87.5561,77.01,11111222 
DISL,ioos:station:DISL:PPTA:1,2019-05-08T05:04:00Z,30.2791,-87.5561,79.26,11111222 
DISL,ioos:station:DISL:PPTA:1,2019-05-08T06:04:00Z,30.2791,-87.5561,80.9,11111222 
DISL,ioos:station:DISL:PPTA:1,2019-05-08T07:04:00Z,30.2791,-87.5561,81.9,11111222 
DISL,ioos:station:DISL:PPTA:1,2019-05-08T08:04:00Z,30.2791,-87.5561,83.2,11111222 
DISL,ioos:station:DISL:PPTA:1,2019-05-08T09:04:00Z,30.2791,-87.5561,85.0,11111222 
DISL,ioos:station:DISL:PPTA:1,2019-05-08T10:04:00Z,30.2791,-87.5561,86.0,11111222 
DISL,ioos:station:DISL:PPTA:1,2019-05-08T11:04:00Z,30.2791,-87.5561,82.3,11111222 
DISL,ioos:station:DISL:PPTA:1,2019-05-08T12:04:00Z,30.2791,-87.5561,82.5,11111222 
DISL,ioos:station:DISL:PPTA:1,2019-05-08T13:04:00Z,30.2791,-87.5561,81.7,11111222 
DISL,ioos:station:DISL:PPTA:1,2019-05-08T14:04:00Z,30.2791,-87.5561,80.6,11111222 
DISL,ioos:station:DISL:PPTA:1,2019-05-08T15:04:00Z,30.2791,-87.5561,78.71,11111222 
DISL,ioos:station:DISL:PPTA:1,2019-05-08T16:04:00Z,30.2791,-87.5561,73.53,11111222 
DISL,ioos:station:DISL:PPTA:1,2019-05-08T16:34:00Z,30.2791,-87.5561,73.59,11111222 
DISL,ioos:station:DISL:PPTA:1,2019-05-08T18:04:00Z,30.2791,-87.5561,74.14,11111222 
DISL,ioos:station:DISL:PPTA:1,2019-05-08T19:04:00Z,30.2791,-87.5561,74.96,11111222 
DISL,ioos:station:DISL:PPTA:1,2019-05-08T20:04:00Z,30.2791,-87.5561,75.84,11111222 
DISL,ioos:station:DISL:PPTA:1,2019-05-08T21:04:00Z,30.2791,-87.5561,77.1,11111222 
DISL,ioos:station:DISL:PPTA:1,2019-05-08T22:04:00Z,30.2791,-87.5561,77.78,11111222 
DISL,ioos:station:DISL:PPTA:1,2019-05-08T23:04:00Z,30.2791,-87.5561,71.23,11111222 
DISL,ioos:station:DISL:PPTA:1,2019-05-09T00:04:00Z,30.2791,-87.5561,78.07,11111222 
DISL,ioos:station:DISL:PPTA:1,2019-05-09T01:04:00Z,30.2791,-87.5561,84.5,11111222 
DISL,ioos:station:DISL:PPTA:1,2019-05-09T02:04:00Z,30.2791,-87.5561,81.4,11111222 
DISL,ioos:station:DISL:PPTA:1,2019-05-09T03:04:00Z,30.2791,-87.5561,79.6,11111222 
DISL,ioos:station:DISL:PPTA:1,2019-05-09T04:04:00Z,30.2791,-87.5561,83.2,11111222 
DISL,ioos:station:DISL:PPTA:1,2019-05-09T05:04:00Z,30.2791,-87.5561,83.9,11111222 
DISL,ioos:station:DISL:PPTA:1,2019-05-09T06:04:00Z,30.2791,-87.5561,84.2,11111222 
DISL,ioos:station:DISL:PPTA:1,2019-05-09T07:04:00Z,30.2791,-87.5561,89.8,11111222 
DISL,ioos:station:DISL:PPTA:1,2019-05-09T08:04:00Z,30.2791,-87.5561,89.5,11111222 
DISL,ioos:station:DISL:PPTA:1,2019-05-09T09:04:00Z,30.2791,-87.5561,84.9,11111222 
DISL,ioos:station:DISL:PPTA:1,2019-05-09T10:04:00Z,30.2791,-87.5561,85.4,11111222 
DISL,ioos:station:DISL:PPTA:1,2019-05-09T11:04:00Z,30.2791,-87.5561,85.4,11111222 
DISL,ioos:station:DISL:PPTA:1,2019-05-09T12:04:00Z,30.2791,-87.5561,86.2,11111222 
DISL,ioos:station:DISL:PPTA:1,2019-05-09T13:04:00Z,30.2791,-87.5561,87.7,11111222 
DISL,ioos:station:DISL:PPTA:1,2019-05-09T14:04:00Z,30.2791,-87.5561,86.0,11111222 
DISL,ioos:station:DISL:PPTA:1,2019-05-09T15:04:00Z,30.2791,-87.5561,84.9,11111222 
DISL,ioos:station:DISL:PPTA:1,2019-05-09T16:04:00Z,30.2791,-87.5561,86.4,11111222 
DISL,ioos:station:DISL:PPTA:1,2019-05-09T17:04:00Z,30.2791,-87.5561,86.0,11111222 
DISL,ioos:station:DISL:PPTA:1,2019-05-09T18:04:00Z,30.2791,-87.5561,86.0,11111222 
DISL,ioos:station:DISL:PPTA:1,2019-05-09T19:04:00Z,30.2791,-87.5561,87.8,11111222 
DISL,ioos:station:DISL:PPTA:1,2019-05-09T20:04:00Z,30.2791,-87.5561,86.0,11111222 
DISL,ioos:station:DISL:PPTA:1,2019-05-09T21:04:00Z,30.2791,-87.5561,85.4,11111222 
DISL,ioos:station:DISL:PPTA:1,2019-05-09T22:04:00Z,30.2791,-87.5561,89.1,11111222 
DISL,ioos:station:DISL:PPTA:1,2019-05-09T23:04:00Z,30.2791,-87.5561,90.7,11111222 
DISL,ioos:station:DISL:PPTA:1,2019-05-10T00:04:00Z,30.2791,-87.5561,93.1,11111222 
DISL,ioos:station:DISL:PPTA:1,2019-05-10T01:04:00Z,30.2791,-87.5561,94.1,11111222 
DISL,ioos:station:DISL:PPTA:1,2019-05-10T02:04:00Z,30.2791,-87.5561,95.3,11111222 
DISL,ioos:station:DISL:PPTA:1,2019-05-10T03:04:00Z,30.2791,-87.5561,89.1,11111222 
DISL,ioos:station:DISL:PPTA:1,2019-05-10T04:04:00Z,30.2791,-87.5561,86.4,11111222 
DISL,ioos:station:DISL:PPTA:1,2019-05-10T05:04:00Z,30.2791,-87.5561,86.1,11111222 
DISL,ioos:station:DISL:PPTA:1,2019-05-10T06:34:00Z,30.2791,-87.5561,84.7,11111222 
DISL,ioos:station:DISL:PPTA:1,2019-05-10T07:04:00Z,30.2791,-87.5561,84.6,11111222 
DISL,ioos:station:DISL:PPTA:1,2019-05-10T08:04:00Z,30.2791,-87.5561,81.2,11111222 
DISL,ioos:station:DISL:PPTA:1,2019-05-10T09:04:00Z,30.2791,-87.5561,80.8,11111222 
DISL,ioos:station:DISL:PPTA:1,2019-05-10T10:04:00Z,30.2791,-87.5561,78.94,11111222 
DISL,ioos:station:DISL:PPTA:1,2019-05-10T11:04:00Z,30.2791,-87.5561,79.0,11111222 
DISL,ioos:station:DISL:PPTA:1,2019-05-10T12:04:00Z,30.2791,-87.5561,93.2,11111222 
DISL,ioos:station:DISL:PPTA:1,2019-05-10T13:04:00Z,30.2791,-87.5561,92.7,11111222 
DISL,ioos:station:DISL:PPTA:1,2019-05-10T14:04:00Z,30.2791,-87.5561,89.0,11111222 
DISL,ioos:station:DISL:PPTA:1,2019-05-10T15:04:00Z,30.2791,-87.5561,85.4,11111222 
DISL,ioos:station:DISL:PPTA:1,2019-05-10T16:04:00Z,30.2791,-87.5561,84.2,11111222 
DISL,ioos:station:DISL:PPTA:1,2019-05-10T17:04:00Z,30.2791,-87.5561,83.6,11111222 
DISL,ioos:station:DISL:PPTA:1,2019-05-10T18:04:00Z,30.2791,-87.5561,81.5,11111222 
DISL,ioos:station:DISL:PPTA:1,2019-05-10T19:04:00Z,30.2791,-87.5561,85.2,11111222 
DISL,ioos:station:DISL:PPTA:1,2019-05-10T20:04:00Z,30.2791,-87.5561,86.1,11111222 
DISL,ioos:station:DISL:PPTA:1,2019-05-10T21:04:00Z,30.2791,-87.5561,88.0,11111222 
DISL,ioos:station:DISL:PPTA:1,2019-05-10T22:04:00Z,30.2791,-87.5561,87.2,11111222 
DISL,ioos:station:DISL:PPTA:1,2019-05-10T23:04:00Z,30.2791,-87.5561,87.4,11111222 
DISL,ioos:station:DISL:PPTA:1,2019-05-11T00:04:00Z,30.2791,-87.5561,88.9,11111222 
DISL,ioos:station:DISL:PPTA:1,2019-05-11T01:04:00Z,30.2791,-87.5561,90.0,11111222 
DISL,ioos:station:DISL:PPTA:1,2019-05-11T02:04:00Z,30.2791,-87.5561,91.1,11111222 
DISL,ioos:station:DISL:PPTA:1,2019-05-11T03:04:00Z,30.2791,-87.5561,92.1,11111222 
DISL,ioos:station:DISL:PPTA:1,2019-05-11T04:04:00Z,30.2791,-87.5561,92.2,11111222 
DISL,ioos:station:DISL:PPTA:1,2019-05-11T05:04:00Z,30.2791,-87.5561,93.5,11111222 
DISL,ioos:station:DISL:PPTA:1,2019-05-11T06:04:00Z,30.2791,-87.5561,91.5,11111222 
DISL,ioos:station:DISL:PPTA:1,2019-05-11T07:04:00Z,30.2791,-87.5561,94.3,11111222 
DISL,ioos:station:DISL:PPTA:1,2019-05-11T08:04:00Z,30.2791,-87.5561,95.0,11111222 
DISL,ioos:station:DISL:PPTA:1,2019-05-11T09:04:00Z,30.2791,-87.5561,95.0,11111222 
DISL,ioos:station:DISL:PPTA:1,2019-05-11T10:04:00Z,30.2791,-87.5561,94.6,11111222 
DISL,ioos:station:DISL:PPTA:1,2019-05-11T11:04:00Z,30.2791,-87.5561,93.4,11111222 
DISL,ioos:station:DISL:PPTA:1,2019-05-11T12:04:00Z,30.2791,-87.5561,94.2,11111222 
DISL,ioos:station:DISL:PPTA:1,2019-05-11T13:04:00Z,30.2791,-87.5561,94.4,11111222 
DISL,ioos:station:DISL:PPTA:1,2019-05-13T14:04:00Z,30.2791,-87.5561,71.2,11111222 
DISL,ioos:station:DISL:PPTA:1,2019-05-13T15:04:00Z,30.2791,-87.5561,63.42,11111222 
DISL,ioos:station:DISL:PPTA:1,2019-05-13T16:04:00Z,30.2791,-87.5561,63.0,11111222 
DISL,ioos:station:DISL:PPTA:1,2019-05-13T17:04:00Z,30.2791,-87.5561,56.99,11111222 
DISL,ioos:station:DISL:PPTA:1,2019-05-13T18:04:00Z,30.2791,-87.5561,56.58,11111222 
DISL,ioos:station:DISL:PPTA:1,2019-05-13T19:04:00Z,30.2791,-87.5561,50.2,11111222 
DISL,ioos:station:DISL:PPTA:1,2019-05-13T20:04:00Z,30.2791,-87.5561,46.49,11111222 
DISL,ioos:station:DISL:PPTA:1,2019-05-13T21:04:00Z,30.2791,-87.5561,51.12,11111222 
DISL,ioos:station:DISL:PPTA:1,2019-05-13T22:04:00Z,30.2791,-87.5561,46.97,11111222 
DISL,ioos:station:DISL:PPTA:1,2019-05-13T23:04:00Z,30.2791,-87.5561,61.4,11111222 
DISL,ioos:station:DISL:PPTA:1,2019-05-14T00:04:00Z,30.2791,-87.5561,55.23,11111222 
DISL,ioos:station:DISL:PPTA:1,2019-05-14T01:04:00Z,30.2791,-87.5561,58.73,11111222 
DISL,ioos:station:DISL:PPTA:1,2019-05-14T02:04:00Z,30.2791,-87.5561,62.07,11111222 
DISL,ioos:station:DISL:PPTA:1,2019-05-14T03:04:00Z,30.2791,-87.5561,65.56,11111222 
DISL,ioos:station:DISL:PPTA:1,2019-05-14T04:04:00Z,30.2791,-87.5561,64.82,11111222 
DISL,ioos:station:DISL:PPTA:1,2019-05-14T05:04:00Z,30.2791,-87.5561,69.05,11111222 
DISL,ioos:station:DISL:PPTA:1,2019-05-14T06:04:00Z,30.2791,-87.5561,67.09,11111222 
DISL,ioos:station:DISL:PPTA:1,2019-05-14T07:04:00Z,30.2791,-87.5561,66.28,11111222 
DISL,ioos:station:DISL:PPTA:1,2019-05-14T08:04:00Z,30.2791,-87.5561,64.98,11111222 
DISL,ioos:station:DISL:PPTA:1,2019-05-14T09:04:00Z,30.2791,-87.5561,65.87,11111222 
DISL,ioos:station:DISL:PPTA:1,2019-05-14T10:04:00Z,30.2791,-87.5561,69.56,11111222 
DISL,ioos:station:DISL:PPTA:1,2019-05-14T11:04:00Z,30.2791,-87.5561,72.71,11111222 
DISL,ioos:station:DISL:PPTA:1,2019-05-14T12:04:00Z,30.2791,-87.5561,69.9,11111222 
DISL,ioos:station:DISL:PPTA:1,2019-05-14T13:04:00Z,30.2791,-87.5561,66.05,11111222 
DISL,ioos:station:DISL:PPTA:1,2019-05-14T14:04:00Z,30.2791,-87.5561,59.41,11111222 
DISL,ioos:station:DISL:PPTA:1,2019-05-14T15:04:00Z,30.2791,-87.5561,47.73,11111222 
DISL,ioos:station:DISL:PPTA:1,2019-05-14T16:04:00Z,30.2791,-87.5561,51.48,11111222 
DISL,ioos:station:DISL:PPTA:1,2019-05-14T17:04:00Z,30.2791,-87.5561,47.8,11111222 
DISL,ioos:station:DISL:PPTA:1,2019-05-14T18:04:00Z,30.2791,-87.5561,43.36,11111222 
DISL,ioos:station:DISL:PPTA:1,2019-05-14T19:04:00Z,30.2791,-87.5561,43.01,11111222 
DISL,ioos:station:DISL:PPTA:1,2019-05-14T20:04:00Z,30.2791,-87.5561,45.13,11111222 
DISL,ioos:station:DISL:PPTA:1,2019-05-14T21:04:00Z,30.2791,-87.5561,43.84,11111222 
DISL,ioos:station:DISL:PPTA:1,2019-05-14T22:04:00Z,30.2791,-87.5561,44.53,11111222 
DISL,ioos:station:DISL:PPTA:1,2019-05-14T23:04:00Z,30.2791,-87.5561,42.69,11111222 
DISL,ioos:station:DISL:PPTA:1,2019-05-15T00:04:00Z,30.2791,-87.5561,45.41,11111222 
DISL,ioos:station:DISL:PPTA:1,2019-05-15T01:04:00Z,30.2791,-87.5561,51.63,11111222 
DISL,ioos:station:DISL:PPTA:1,2019-05-15T02:04:00Z,30.2791,-87.5561,53.89,11111222 
DISL,ioos:station:DISL:PPTA:1,2019-05-15T03:04:00Z,30.2791,-87.5561,60.25,11111222 
DISL,ioos:station:DISL:PPTA:1,2019-05-15T04:04:00Z,30.2791,-87.5561,62.16,11111222 
DISL,ioos:station:DISL:PPTA:1,2019-05-15T05:04:00Z,30.2791,-87.5561,64.95,11111222 
DISL,ioos:station:DISL:PPTA:1,2019-05-15T06:04:00Z,30.2791,-87.5561,64.3,11111222 
DISL,ioos:station:DISL:PPTA:1,2019-05-15T07:04:00Z,30.2791,-87.5561,66.21,11111222 
DISL,ioos:station:DISL:PPTA:1,2019-05-15T08:04:00Z,30.2791,-87.5561,70.24,11111222 
DISL,ioos:station:DISL:PPTA:1,2019-05-15T09:04:00Z,30.2791,-87.5561,72.35,11111222 
DISL,ioos:station:DISL:PPTA:1,2019-05-15T10:04:00Z,30.2791,-87.5561,74.78,11111222 
DISL,ioos:station:DISL:PPTA:1,2019-05-15T11:04:00Z,30.2791,-87.5561,73.05,11111222 
DISL,ioos:station:DISL:PPTA:1,2019-05-15T12:04:00Z,30.2791,-87.5561,65.66,11111222 
DISL,ioos:station:DISL:PPTA:1,2019-05-15T13:04:00Z,30.2791,-87.5561,69.3,11111222 
DISL,ioos:station:DISL:PPTA:1,2019-05-15T14:04:00Z,30.2791,-87.5561,65.33,11111222 
DISL,ioos:station:DISL:PPTA:1,2019-05-15T15:04:00Z,30.2791,-87.5561,55.15,11111222 
DISL,ioos:station:DISL:PPTA:1,2019-05-15T16:04:00Z,30.2791,-87.5561,49.49,11111222 
DISL,ioos:station:DISL:PPTA:1,2019-05-15T17:04:00Z,30.2791,-87.5561,51.6,11111222 
DISL,ioos:station:DISL:PPTA:1,2019-05-15T18:04:00Z,30.2791,-87.5561,50.05,11111222 
DISL,ioos:station:DISL:PPTA:1,2019-05-15T19:04:00Z,30.2791,-87.5561,51.58,11111222 
DISL,ioos:station:DISL:PPTA:1,2019-05-15T20:04:00Z,30.2791,-87.5561,51.36,11111222 
DISL,ioos:station:DISL:PPTA:1,2019-05-15T21:04:00Z,30.2791,-87.5561,53.65,11111222 
DISL,ioos:station:DISL:PPTA:1,2019-05-15T22:04:00Z,30.2791,-87.5561,54.62,11111222 
DISL,ioos:station:DISL:PPTA:1,2019-05-15T23:04:00Z,30.2791,-87.5561,54.69,11111222 
DISL,ioos:station:DISL:PPTA:1,2019-05-16T00:04:00Z,30.2791,-87.5561,60.9,11111222 
DISL,ioos:station:DISL:PPTA:1,2019-05-16T01:04:00Z,30.2791,-87.5561,63.03,11111222 
DISL,ioos:station:DISL:PPTA:1,2019-05-16T02:04:00Z,30.2791,-87.5561,65.71,11111222 
DISL,ioos:station:DISL:PPTA:1,2019-05-16T03:04:00Z,30.2791,-87.5561,72.4,11111222 
DISL,ioos:station:DISL:PPTA:1,2019-05-16T04:04:00Z,30.2791,-87.5561,74.94,11111222 
DISL,ioos:station:DISL:PPTA:1,2019-05-16T05:04:00Z,30.2791,-87.5561,80.7,11111222 
DISL,ioos:station:DISL:PPTA:1,2019-05-16T06:04:00Z,30.2791,-87.5561,83.3,11111222 
DISL,ioos:station:DISL:PPTA:1,2019-05-16T07:04:00Z,30.2791,-87.5561,84.9,11111222 
DISL,ioos:station:DISL:PPTA:1,2019-05-16T08:04:00Z,30.2791,-87.5561,87.0,11111222 
DISL,ioos:station:DISL:PPTA:1,2019-05-16T09:04:00Z,30.2791,-87.5561,88.5,11111222 
DISL,ioos:station:DISL:PPTA:1,2019-05-16T10:04:00Z,30.2791,-87.5561,89.2,11111222 
DISL,ioos:station:DISL:PPTA:1,2019-05-16T11:04:00Z,30.2791,-87.5561,90.4,11111222 
DISL,ioos:station:DISL:PPTA:1,2019-05-16T12:04:00Z,30.2791,-87.5561,83.7,11111222 
DISL,ioos:station:DISL:PPTA:1,2019-05-16T13:04:00Z,30.2791,-87.5561,76.72,11111222 
DISL,ioos:station:DISL:PPTA:1,2019-05-16T14:04:00Z,30.2791,-87.5561,71.98,11111222 
DISL,ioos:station:DISL:PPTA:1,2019-05-16T15:04:00Z,30.2791,-87.5561,64.66,11111222 
DISL,ioos:station:DISL:PPTA:1,2019-05-16T16:04:00Z,30.2791,-87.5561,50.8,11111222 
DISL,ioos:station:DISL:PPTA:1,2019-05-16T16:34:00Z,30.2791,-87.5561,48.35,11111222 
DISL,ioos:station:DISL:PPTA:1,2019-05-16T18:04:00Z,30.2791,-87.5561,50.66,11111222 
DISL,ioos:station:DISL:PPTA:1,2019-05-16T19:04:00Z,30.2791,-87.5561,57.22,11111222 
DISL,ioos:station:DISL:PPTA:1,2019-05-16T20:04:00Z,30.2791,-87.5561,56.45,11111222 
DISL,ioos:station:DISL:PPTA:1,2019-05-16T21:04:00Z,30.2791,-87.5561,55.74,11111222 
DISL,ioos:station:DISL:PPTA:1,2019-05-16T22:04:00Z,30.2791,-87.5561,51.81,11111222 
DISL,ioos:station:DISL:PPTA:1,2019-05-16T23:04:00Z,30.2791,-87.5561,56.13,11111222 
DISL,ioos:station:DISL:PPTA:1,2019-05-17T00:04:00Z,30.2791,-87.5561,59.71,11111222 
DISL,ioos:station:DISL:PPTA:1,2019-05-17T01:04:00Z,30.2791,-87.5561,65.87,11111222 
DISL,ioos:station:DISL:PPTA:1,2019-05-17T02:04:00Z,30.2791,-87.5561,69.58,11111222 
DISL,ioos:station:DISL:PPTA:1,2019-05-17T03:04:00Z,30.2791,-87.5561,74.77,11111222 
DISL,ioos:station:DISL:PPTA:1,2019-05-17T04:04:00Z,30.2791,-87.5561,76.63,11111222 
DISL,ioos:station:DISL:PPTA:1,2019-05-17T05:04:00Z,30.2791,-87.5561,78.95,11111222 
DISL,ioos:station:DISL:PPTA:1,2019-05-17T06:04:00Z,30.2791,-87.5561,81.6,11111222 
DISL,ioos:station:DISL:PPTA:1,2019-05-17T07:04:00Z,30.2791,-87.5561,84.1,11111222 
DISL,ioos:station:DISL:PPTA:1,2019-05-17T08:04:00Z,30.2791,-87.5561,85.7,11111222 
DISL,ioos:station:DISL:PPTA:1,2019-05-17T09:04:00Z,30.2791,-87.5561,91.1,11111222 
DISL,ioos:station:DISL:PPTA:1,2019-05-17T10:04:00Z,30.2791,-87.5561,93.6,11111222 
DISL,ioos:station:DISL:PPTA:1,2019-05-17T11:04:00Z,30.2791,-87.5561,95.6,11111222 
DISL,ioos:station:DISL:PPTA:1,2019-05-17T12:04:00Z,30.2791,-87.5561,90.2,11111222 
DISL,ioos:station:DISL:PPTA:1,2019-05-17T13:04:00Z,30.2791,-87.5561,81.7,11111222 
DISL,ioos:station:DISL:PPTA:1,2019-05-17T14:04:00Z,30.2791,-87.5561,78.5,11111222 
DISL,ioos:station:DISL:PPTA:1,2019-05-17T15:04:00Z,30.2791,-87.5561,73.71,11111222 
DISL,ioos:station:DISL:PPTA:1,2019-05-17T16:04:00Z,30.2791,-87.5561,76.02,11111222 
DISL,ioos:station:DISL:PPTA:1,2019-05-17T17:04:00Z,30.2791,-87.5561,73.91,11111222 
DISL,ioos:station:DISL:PPTA:1,2019-05-17T18:04:00Z,30.2791,-87.5561,61.78,11111222 
DISL,ioos:station:DISL:PPTA:1,2019-05-17T19:04:00Z,30.2791,-87.5561,55.31,11111222 
DISL,ioos:station:DISL:PPTA:1,2019-05-17T20:04:00Z,30.2791,-87.5561,64.66,11111222 
DISL,ioos:station:DISL:PPTA:1,2019-05-17T21:04:00Z,30.2791,-87.5561,67.33,11111222 
DISL,ioos:station:DISL:PPTA:1,2019-05-17T22:04:00Z,30.2791,-87.5561,67.69,11111222 
DISL,ioos:station:DISL:PPTA:1,2019-05-17T23:04:00Z,30.2791,-87.5561,71.58,11111222 
DISL,ioos:station:DISL:PPTA:1,2019-05-18T00:04:00Z,30.2791,-87.5561,74.46,11111222 
DISL,ioos:station:DISL:PPTA:1,2019-05-18T01:04:00Z,30.2791,-87.5561,79.17,11111222 
DISL,ioos:station:DISL:PPTA:1,2019-05-18T02:04:00Z,30.2791,-87.5561,82.2,11111222 
DISL,ioos:station:DISL:PPTA:1,2019-05-18T03:04:00Z,30.2791,-87.5561,85.7,11111222 
DISL,ioos:station:DISL:PPTA:1,2019-05-18T04:04:00Z,30.2791,-87.5561,85.6,11111222 
DISL,ioos:station:DISL:PPTA:1,2019-05-18T05:04:00Z,30.2791,-87.5561,87.8,11111222 
DISL,ioos:station:DISL:PPTA:1,2019-05-18T06:04:00Z,30.2791,-87.5561,89.2,11111222 
DISL,ioos:station:DISL:PPTA:1,2019-05-18T07:04:00Z,30.2791,-87.5561,89.1,11111222 
DISL,ioos:station:DISL:PPTA:1,2019-05-18T08:04:00Z,30.2791,-87.5561,87.4,11111222 
DISL,ioos:station:DISL:PPTA:1,2019-05-18T09:04:00Z,30.2791,-87.5561,87.9,11111222 
DISL,ioos:station:DISL:PPTA:1,2019-05-18T10:04:00Z,30.2791,-87.5561,84.9,11111222 
DISL,ioos:station:DISL:PPTA:1,2019-05-18T11:04:00Z,30.2791,-87.5561,85.5,11111222 
DISL,ioos:station:DISL:PPTA:1,2019-05-18T12:04:00Z,30.2791,-87.5561,81.4,11111222 
DISL,ioos:station:DISL:PPTA:1,2019-05-18T13:04:00Z,30.2791,-87.5561,78.37,11111222 
DISL,ioos:station:DISL:PPTA:1,2019-05-18T14:04:00Z,30.2791,-87.5561,77.93,11111222 
DISL,ioos:station:DISL:PPTA:1,2019-05-18T15:04:00Z,30.2791,-87.5561,79.77,11111222 
DISL,ioos:station:DISL:PPTA:1,2019-05-18T16:04:00Z,30.2791,-87.5561,80.6,11111222 
DISL,ioos:station:DISL:PPTA:1,2019-05-18T17:04:00Z,30.2791,-87.5561,77.79,11111222 
DISL,ioos:station:DISL:PPTA:1,2019-05-18T18:04:00Z,30.2791,-87.5561,78.75,11111222 
DISL,ioos:station:DISL:PPTA:1,2019-05-18T19:04:00Z,30.2791,-87.5561,75.43,11111222 
DISL,ioos:station:DISL:PPTA:1,2019-05-18T20:04:00Z,30.2791,-87.5561,75.57,11111222 
DISL,ioos:station:DISL:PPTA:1,2019-05-18T21:04:00Z,30.2791,-87.5561,73.86,11111222 
DISL,ioos:station:DISL:PPTA:1,2019-05-18T22:04:00Z,30.2791,-87.5561,75.94,11111222 
DISL,ioos:station:DISL:PPTA:1,2019-05-18T23:04:00Z,30.2791,-87.5561,81.5,11111222 
DISL,ioos:station:DISL:PPTA:1,2019-05-19T00:04:00Z,30.2791,-87.5561,83.6,11111222 
DISL,ioos:station:DISL:PPTA:1,2019-05-19T01:04:00Z,30.2791,-87.5561,85.6,11111222 
DISL,ioos:station:DISL:PPTA:1,2019-05-19T02:04:00Z,30.2791,-87.5561,85.3,11111222 
DISL,ioos:station:DISL:PPTA:1,2019-05-19T03:04:00Z,30.2791,-87.5561,85.4,11111222 
DISL,ioos:station:DISL:PPTA:1,2019-05-19T04:04:00Z,30.2791,-87.5561,84.6,11111222 
DISL,ioos:station:DISL:PPTA:1,2019-05-19T05:04:00Z,30.2791,-87.5561,85.1,11111222 
DISL,ioos:station:DISL:PPTA:1,2019-05-19T06:04:00Z,30.2791,-87.5561,83.2,11111222 
DISL,ioos:station:DISL:PPTA:1,2019-05-19T07:04:00Z,30.2791,-87.5561,79.26,11111222 
DISL,ioos:station:DISL:PPTA:1,2019-05-19T08:04:00Z,30.2791,-87.5561,82.3,11111222 
DISL,ioos:station:DISL:PPTA:1,2019-05-19T09:04:00Z,30.2791,-87.5561,81.5,11111222 
DISL,ioos:station:DISL:PPTA:1,2019-05-19T10:04:00Z,30.2791,-87.5561,80.6,11111222 
DISL,ioos:station:DISL:PPTA:1,2019-05-19T11:04:00Z,30.2791,-87.5561,80.7,11111222 
DISL,ioos:station:DISL:PPTA:1,2019-05-19T12:04:00Z,30.2791,-87.5561,79.31,11111222 
DISL,ioos:station:DISL:PPTA:1,2019-05-19T13:04:00Z,30.2791,-87.5561,75.31,11111222 
DISL,ioos:station:DISL:PPTA:1,2019-05-19T14:04:00Z,30.2791,-87.5561,73.98,11111222 
DISL,ioos:station:DISL:PPTA:1,2019-05-19T15:04:00Z,30.2791,-87.5561,77.52,11111222 
DISL,ioos:station:DISL:PPTA:1,2019-05-19T16:04:00Z,30.2791,-87.5561,76.02,11111222 
DISL,ioos:station:DISL:PPTA:1,2019-05-19T17:04:00Z,30.2791,-87.5561,74.25,11111222 
DISL,ioos:station:DISL:PPTA:1,2019-05-19T18:04:00Z,30.2791,-87.5561,73.37,11111222 
DISL,ioos:station:DISL:PPTA:1,2019-05-19T19:04:00Z,30.2791,-87.5561,74.32,11111222 
DISL,ioos:station:DISL:PPTA:1,2019-05-19T20:04:00Z,30.2791,-87.5561,75.89,11111222 
DISL,ioos:station:DISL:PPTA:1,2019-05-19T21:04:00Z,30.2791,-87.5561,76.39,11111222 
DISL,ioos:station:DISL:PPTA:1,2019-05-19T22:04:00Z,30.2791,-87.5561,77.14,11111222 
DISL,ioos:station:DISL:PPTA:1,2019-05-19T23:04:00Z,30.2791,-87.5561,77.91,11111222 
DISL,ioos:station:DISL:PPTA:1,2019-05-20T00:04:00Z,30.2791,-87.5561,80.8,11111222 
DISL,ioos:station:DISL:PPTA:1,2019-05-20T01:04:00Z,30.2791,-87.5561,84.0,11111222 
DISL,ioos:station:DISL:PPTA:1,2019-05-20T02:04:00Z,30.2791,-87.5561,85.0,11111222 
DISL,ioos:station:DISL:PPTA:1,2019-05-20T03:04:00Z,30.2791,-87.5561,84.3,11111222 
DISL,ioos:station:DISL:PPTA:1,2019-05-20T04:04:00Z,30.2791,-87.5561,84.6,11111222 
DISL,ioos:station:DISL:PPTA:1,2019-05-20T05:04:00Z,30.2791,-87.5561,86.1,11111222 
DISL,ioos:station:DISL:PPTA:1,2019-05-20T06:04:00Z,30.2791,-87.5561,85.8,11111222 
DISL,ioos:station:DISL:PPTA:1,2019-05-20T07:04:00Z,30.2791,-87.5561,85.5,11111222 
DISL,ioos:station:DISL:PPTA:1,2019-05-20T08:04:00Z,30.2791,-87.5561,87.2,11111222 
DISL,ioos:station:DISL:PPTA:1,2019-05-20T09:04:00Z,30.2791,-87.5561,87.2,11111222 
DISL,ioos:station:DISL:PPTA:1,2019-05-20T10:04:00Z,30.2791,-87.5561,88.3,11111222 
DISL,ioos:station:DISL:PPTA:1,2019-05-20T11:04:00Z,30.2791,-87.5561,93.0,11111222 
DISL,ioos:station:DISL:PPTA:1,2019-05-20T12:04:00Z,30.2791,-87.5561,93.0,11111222 
DISL,ioos:station:DISL:PPTA:1,2019-05-20T13:04:00Z,30.2791,-87.5561,90.2,11111222 
DISL,ioos:station:DISL:PPTA:1,2019-05-20T14:04:00Z,30.2791,-87.5561,83.1,11111222 
DISL,ioos:station:DISL:PPTA:1,2019-05-20T15:04:00Z,30.2791,-87.5561,79.95,11111222 
DISL,ioos:station:DISL:PPTA:1,2019-05-20T16:04:00Z,30.2791,-87.5561,77.06,11111222 
DISL,ioos:station:DISL:PPTA:1,2019-05-20T17:04:00Z,30.2791,-87.5561,74.47,11111222 
DISL,ioos:station:DISL:PPTA:1,2019-05-20T18:04:00Z,30.2791,-87.5561,75.5,11111222 
DISL,ioos:station:DISL:PPTA:1,2019-05-20T19:04:00Z,30.2791,-87.5561,76.2,11111222 
DISL,ioos:station:DISL:PPTA:1,2019-05-20T20:04:00Z,30.2791,-87.5561,75.81,11111222 
DISL,ioos:station:DISL:PPTA:1,2019-05-20T21:04:00Z,30.2791,-87.5561,76.98,11111222 
DISL,ioos:station:DISL:PPTA:1,2019-05-20T22:04:00Z,30.2791,-87.5561,77.96,11111222 
DISL,ioos:station:DISL:PPTA:1,2019-05-20T23:04:00Z,30.2791,-87.5561,81.6,11111222 
DISL,ioos:station:DISL:PPTA:1,2019-05-21T00:04:00Z,30.2791,-87.5561,81.4,11111222 
DISL,ioos:station:DISL:PPTA:1,2019-05-21T01:04:00Z,30.2791,-87.5561,85.5,11111222 
DISL,ioos:station:DISL:PPTA:1,2019-05-21T02:04:00Z,30.2791,-87.5561,85.5,11111222 
DISL,ioos:station:DISL:PPTA:1,2019-05-21T03:04:00Z,30.2791,-87.5561,85.4,11111222 
DISL,ioos:station:DISL:PPTA:1,2019-05-21T04:04:00Z,30.2791,-87.5561,86.7,11111222 
DISL,ioos:station:DISL:PPTA:1,2019-05-21T05:04:00Z,30.2791,-87.5561,87.0,11111222 
DISL,ioos:station:DISL:PPTA:1,2019-05-21T06:04:00Z,30.2791,-87.5561,86.7,11111222 
DISL,ioos:station:DISL:PPTA:1,2019-05-21T07:04:00Z,30.2791,-87.5561,86.8,11111222 
DISL,ioos:station:DISL:PPTA:1,2019-05-21T08:04:00Z,30.2791,-87.5561,85.5,11111222 
DISL,ioos:station:DISL:PPTA:1,2019-05-21T09:04:00Z,30.2791,-87.5561,84.0,11111222 
DISL,ioos:station:DISL:PPTA:1,2019-05-21T10:04:00Z,30.2791,-87.5561,83.5,11111222 
DISL,ioos:station:DISL:PPTA:1,2019-05-21T11:04:00Z,30.2791,-87.5561,83.8,11111222 
DISL,ioos:station:DISL:PPTA:1,2019-05-21T12:04:00Z,30.2791,-87.5561,82.4,11111222 
DISL,ioos:station:DISL:PPTA:1,2019-05-21T13:04:00Z,30.2791,-87.5561,76.46,11111222 
DISL,ioos:station:DISL:PPTA:1,2019-05-21T14:04:00Z,30.2791,-87.5561,77.18,11111222 